Regional Weather Roundup
Issued by NWS Sioux Falls, SD

Home | Current Version | Previous Version | Text Only | Print | Product List | Glossary On
Versions: 1 2 3 4 5 6 7 8 9 10 11 12 13 14 15 16 17 18 19 20 21 22 23 24 25 26 27 28 29 30 31 32 33 34 35 36 37 38 39 40 41 42 43 44 45 46 47 48 49 50
000
ASUS43 KFSD 221802
RWRFSD

WEATHER ROUNDUP FOR SE SOUTH DAKOTA/SW MINNESOTA/NW IOWA
NATIONAL WEATHER SERVICE SIOUX FALLS SD
100 PM CDT TUE APR 22 2014

NOTE: "FAIR" INDICATES FEW OR NO CLOUDS BELOW 12,000 FEET WITH NO
SIGNIFICANT WEATHER AND OR OBSTRUCTIONS TO VISIBILITY.


SDZ038>040-050-052>070-221900-
SOUTHEAST SOUTH DAKOTA

CITY           SKY/WX    TMP DP  RH WIND       PRES   REMARKS
CHAMBERLAIN      N/A     63  30  28 S23G36    29.96F
6HR MIN TEMP:  37; 6HR MAX TEMP:  67;

HURON          MOSUNNY   63  30  28 MISG      30.03F
6HR MIN TEMP:  34; 6HR MAX TEMP:  64;

MADISON        FAIR      59  28  31 SE13      30.09F
MITCHELL       MOSUNNY   63  30  28 S17G28    30.05F
6HR MIN TEMP:  32; 6HR MAX TEMP:  65;

SIOUX FALLS    FAIR      61  31  32 SE12G17   30.09F
6HR MIN TEMP:  29; 6HR MAX TEMP:  61;

WINNER         FAIR      69  30  23 SE26G36   29.92F
YANKTON        FAIR      63  28  27 S16G22    30.09F
$$

MNZ071-072-080-081-089-090-097-098-221900-
SOUTHWEST MINNESOTA

CITY           SKY/WX    TMP DP  RH WIND       PRES   REMARKS
FAIRMONT       FAIR      57  30  35 NE13      30.14F
JACKSON        FAIR      59  28  31 VRB7      30.12F
LUVERNE        FAIR      61  30  31 S5        30.11S
MARSHALL       FAIR      57  32  38 CALM      30.11F
6HR MIN TEMP:  32; 6HR MAX TEMP:  59;

MONTEVIDEO     FAIR      64  32  29 E5        30.11F
PIPESTONE      FAIR      59  28  31 CALM      30.09F
REDWOOD FALLS  FAIR      58  34  40 W8        30.12F
TRACY          FAIR      59  31  35 NE6       30.11F
WINDOM         FAIR      57  30  35 N7        30.12F
WORTHINGTON    FAIR      57  28  33 SE7       30.12F
$$

IAZ001>003-012>014-020>022-031-032-NEZ013-014-SDZ071-221900-
NORTHWEST IOWA

CITY           SKY/WX    TMP DP  RH WIND       PRES   REMARKS
CHEROKEE       FAIR      63  33  32 E3        30.12F
DENISON        FAIR      59  32  36 NE5G12    30.12F
ESTHERVILLE    FAIR      57  33  40 N10       30.11F
SHELDON        FAIR      59  30  33 CALM      30.10F
SIOUX CITY     FAIR      63  31  30 E8        30.12F
6HR MIN TEMP:  30; 6HR MAX TEMP:  64;

SPENCER        FAIR      59  31  34 N8        30.12F
6HR MIN TEMP:  30; 6HR MAX TEMP:  60;

STORM LAKE     FAIR      57  32  38 E8G15     30.12F
$$

ABBREVIATIONS USED IN REMARKS
   TC - TEMPERATURE IN CELSIUS
  WCI - WIND CHILL INDEX
   HX - HEAT INDEX
  VSB - VISIBILITY




USA.gov is the U.S. government's official web portal to all federal, state and local government web resources and services.